カタログに戻る

STARLINK-6294

運用中通信VLEO
NORAD 57225·PAYLOAD·🇺🇸 United States

打ち上げ Jul 7, 2023 から Vandenberg Space Force Base

Loading…

次のパス (今後24時間)

TLE

最新Source: CelesTrak SupGP

元期: Sep 15, 2026, 02:40 UTC

1 57225C 23094H   26258.11159722 -.00038545  00000+0 -13959-2 0  2583
2 57225  43.0039  41.3665 0002011 272.8881 329.7844 15.27600052    13

AllMySatでSTARLINK-6294をリアルタイム追跡

Download on the App Store